• In Hungary
  • List of Countries
  • For 7 days
  • Water Temperature
  • Satellite Maps
  • Weather Map
  • News
  • Weather Widgets
  • user-avatar
    Login

    Hourly Weather Bad Kreuznach

    Today, 13 December, Wednesday

    Time Temperature Precipitation Wind Pressure Humidity
    00:00 -1°C° 0 mm 2 mps 750 mmHg 91%
    01:00 +1°C° 0 mm 2 mps 750 mmHg 93%
    02:00 0°C° 0 mm 3 mps 749 mmHg 92%
    03:00 0°C° 0 mm 3 mps 749 mmHg 91%
    04:00 +1°C° 0 mm 3 mps 748 mmHg 90%
    05:00 0°C° 0 mm 4 mps 748 mmHg 88%
    06:00 0°C° 0 mm 4 mps 748 mmHg 86%
    07:00 0°C° 0 mm 5 mps 747 mmHg 85%
    08:00 +1°C° 0 mm 5 mps 747 mmHg 83%
    09:00 +1°C° 0 mm 6 mps 746 mmHg 81%
    10:00 +1°C° 0 mm 6 mps 745 mmHg 79%
    11:00 +2°C° 0.3 mm 6 mps 744 mmHg 77%
    12:00 +2°C° 0.3 mm 7 mps 743 mmHg 76%
    13:00 +3°C° 0.3 mm 7 mps 742 mmHg 75%
    14:00 +3°C° 0.9 mm 7 mps 742 mmHg 77%
    15:00 +3°C° 0.9 mm 7 mps 741 mmHg 79%
    16:00 +2°C° 0.9 mm 7 mps 740 mmHg 81%
    17:00 +3°C° 0.4 mm 7 mps 739 mmHg 83%
    18:00 +3°C° 0.4 mm 7 mps 738 mmHg 84%
    19:00 +4°C° 0.4 mm 7 mps 737 mmHg 85%
    20:00 +4°C° 0.2 mm 7 mps 736 mmHg 85%
    21:00 +4°C° 0.2 mm 8 mps 734 mmHg 84%
    22:00 +5°C° 0.2 mm 8 mps 733 mmHg 84%
    23:00 +5°C° 1.3 mm 7 mps 733 mmHg 82%

    Tomorrow, 14 December, Thursday

    Time Temperature Precipitation Wind Pressure Humidity
    00:00 +4°C° 1.3 mm 7 mps 733 mmHg 81%
    01:00 +4°C° 1.3 mm 6 mps 733 mmHg 79%
    02:00 +4°C° 0.4 mm 6 mps 733 mmHg 79%
    03:00 +3°C° 0.4 mm 7 mps 733 mmHg 79%
    04:00 +2°C° 0.4 mm 8 mps 734 mmHg 79%
    05:00 +1°C° 0.2 mm 8 mps 735 mmHg 75%
    06:00 0°C° 0.2 mm 8 mps 736 mmHg 71%
    07:00 0°C° 0.2 mm 8 mps 737 mmHg 67%
    08:00 0°C° 0 mm 8 mps 738 mmHg 68%
    09:00 0°C° 0 mm 8 mps 738 mmHg 70%
    10:00 0°C° 0 mm 7 mps 739 mmHg 71%
    11:00 +2°C° 0 mm 7 mps 739 mmHg 70%
    12:00 +3°C° 0 mm 7 mps 739 mmHg 70%
    13:00 +3°C° 0 mm 7 mps 738 mmHg 69%
    14:00 +3°C° 0.5 mm 7 mps 737 mmHg 71%
    15:00 +3°C° 0.5 mm 7 mps 736 mmHg 73%
    16:00 +3°C° 0.5 mm 6 mps 736 mmHg 76%
    17:00 +3°C° 0.7 mm 6 mps 735 mmHg 79%
    18:00 +2°C° 0.7 mm 5 mps 734 mmHg 82%
    19:00 +3°C° 0.7 mm 4 mps 733 mmHg 85%
    20:00 +3°C° 0.7 mm 4 mps 733 mmHg 86%
    21:00 +3°C° 0.7 mm 4 mps 733 mmHg 87%
    22:00 +3°C° 0.7 mm 4 mps 732 mmHg 87%
    23:00 +3°C° 0.3 mm 4 mps 733 mmHg 87%

    Day after tomorrow, 15 December, Friday

    Time Temperature Precipitation Wind Pressure Humidity
    00:00 +3°C° 0.3 mm 4 mps 733 mmHg 86%
    01:00 +1°C° 0.3 mm 4 mps 733 mmHg 86%
    02:00 +1°C° 0.1 mm 4 mps 734 mmHg 86%
    03:00 +1°C° 0.1 mm 4 mps 734 mmHg 86%
    04:00 0°C° 0.1 mm 4 mps 735 mmHg 86%
    05:00 0°C° 0 mm 4 mps 735 mmHg 87%
    06:00 -1°C° 0 mm 4 mps 736 mmHg 88%
    07:00 0°C° 0 mm 3 mps 736 mmHg 89%
    08:00 0°C° 0.3 mm 4 mps 736 mmHg 88%
    09:00 0°C° 0.3 mm 4 mps 736 mmHg 87%
    10:00 +1°C° 0.3 mm 5 mps 736 mmHg 86%
    11:00 +1°C° 0.1 mm 5 mps 736 mmHg 86%
    12:00 +2°C° 0.1 mm 5 mps 736 mmHg 85%
    13:00 +2°C° 0.1 mm 5 mps 736 mmHg 84%
    14:00 +3°C° 0.1 mm 4 mps 736 mmHg 85%
    15:00 +3°C° 0.1 mm 4 mps 736 mmHg 86%
    16:00 +3°C° 0.1 mm 3 mps 736 mmHg 87%
    17:00 +2°C° 0.3 mm 3 mps 736 mmHg 88%
    18:00 +2°C° 0.3 mm 3 mps 737 mmHg 90%
    19:00 +3°C° 0.3 mm 2 mps 737 mmHg 91%
    20:00 +3°C° 0.1 mm 2 mps 737 mmHg 91%
    21:00 +2°C° 0.1 mm 2 mps 737 mmHg 92%
    22:00 +2°C° 0.1 mm 2 mps 738 mmHg 92%
    23:00 +2°C° 0 mm 2 mps 738 mmHg 92%

    16 December, Saturday

    Time Temperature Precipitation Wind Pressure Humidity
    00:00 +1°C° 0 mm 2 mps 739 mmHg 93%
    01:00 +1°C° 0 mm 2 mps 739 mmHg 93%
    02:00 +1°C° 0 mm 2 mps 739 mmHg 92%
    03:00 +1°C° 0 mm 3 mps 740 mmHg 91%
    04:00 +1°C° 0 mm 3 mps 740 mmHg 90%
    05:00 +1°C° 0.1 mm 3 mps 741 mmHg 89%
    06:00 +1°C° 0.1 mm 3 mps 741 mmHg 88%
    07:00 0°C° 0.1 mm 4 mps 742 mmHg 88%
    08:00 0°C° 0 mm 4 mps 743 mmHg 86%
    09:00 0°C° 0 mm 4 mps 743 mmHg 85%
    10:00 0°C° 0 mm 4 mps 744 mmHg 84%
    11:00 +1°C° 0 mm 4 mps 745 mmHg 83%
    12:00 +1°C° 0 mm 4 mps 745 mmHg 82%
    13:00 +1°C° 0 mm 5 mps 746 mmHg 81%
    14:00 +1°C° 0 mm 4 mps 746 mmHg 81%
    15:00 +1°C° 0 mm 4 mps 747 mmHg 82%
    16:00 +1°C° 0 mm 4 mps 747 mmHg 82%
    17:00 +1°C° 0 mm 4 mps 748 mmHg 84%
    18:00 0°C° 0 mm 4 mps 748 mmHg 85%
    19:00 0°C° 0 mm 4 mps 749 mmHg 86%
    20:00 0°C° 0 mm 4 mps 749 mmHg 87%
    21:00 +1°C° 0 mm 3 mps 750 mmHg 88%
    22:00 0°C° 0 mm 3 mps 751 mmHg 89%
    23:00 0°C° 0 mm 3 mps 751 mmHg 90%

    17 December, Sunday

    Time Temperature Precipitation Wind Pressure Humidity
    00:00 0°C° 0 mm 3 mps 752 mmHg 90%
    01:00 0°C° 0 mm 3 mps 752 mmHg 91%
    02:00 -1°C° 0 mm 2 mps 752 mmHg 91%
    03:00 -1°C° 0 mm 2 mps 753 mmHg 92%
    04:00 -1°C° 0 mm 2 mps 753 mmHg 92%
    05:00 -1°C° 0 mm 2 mps 753 mmHg 92%
    06:00 -1°C° 0 mm 2 mps 754 mmHg 92%
    07:00 -1°C° 0 mm 2 mps 755 mmHg 92%
    08:00 -1°C° 0 mm 2 mps 755 mmHg 91%
    09:00 +1°C° 0 mm 2 mps 756 mmHg 90%
    10:00 +1°C° 0 mm 2 mps 757 mmHg 89%
    11:00 +2°C° 0 mm 2 mps 757 mmHg 88%
    12:00 +1°C° 0 mm 3 mps 757 mmHg 86%
    13:00 +2°C° 0 mm 3 mps 757 mmHg 85%
    14:00 +2°C° 0 mm 3 mps 758 mmHg 86%
    15:00 +2°C° 0 mm 2 mps 758 mmHg 86%
    16:00 +2°C° 0 mm 2 mps 758 mmHg 86%
    17:00 +2°C° 0 mm 2 mps 758 mmHg 87%
    18:00 +2°C° 0 mm 2 mps 759 mmHg 87%
    19:00 +2°C° 0 mm 2 mps 759 mmHg 87%
    20:00 +2°C° 0 mm 2 mps 759 mmHg 88%
    21:00 +1°C° 0 mm 2 mps 759 mmHg 88%
    22:00 +1°C° 0 mm 2 mps 759 mmHg 88%
    23:00 0°C° 0 mm 3 mps 759 mmHg 89%

    18 December, Monday

    Time Temperature Precipitation Wind Pressure Humidity
    00:00 0°C° 0 mm 3 mps 759 mmHg 89%
    01:00 0°C° 0 mm 3 mps 759 mmHg 90%
    02:00 0°C° 0 mm 3 mps 758 mmHg 90%
    03:00 +1°C° 0 mm 3 mps 758 mmHg 90%
    04:00 0°C° 0 mm 4 mps 757 mmHg 90%
    05:00 0°C° 0.3 mm 4 mps 757 mmHg 91%
    06:00 0°C° 0.3 mm 4 mps 756 mmHg 91%
    07:00 +1°C° 0.3 mm 5 mps 755 mmHg 91%
    08:00 +1°C° 0.9 mm 5 mps 755 mmHg 90%
    09:00 +1°C° 0.9 mm 6 mps 754 mmHg 90%
    10:00 +1°C° 0.9 mm 6 mps 754 mmHg 89%
    11:00 +1°C° 1 mm 6 mps 753 mmHg 90%
    12:00 +1°C° 1 mm 5 mps 753 mmHg 90%
    13:00 +2°C° 1 mm 5 mps 752 mmHg 91%
    14:00 +2°C° 0.2 mm 5 mps 752 mmHg 92%
    15:00 +3°C° 0.2 mm 4 mps 752 mmHg 93%
    16:00 +4°C° 0.2 mm 4 mps 752 mmHg 95%
    17:00 +4°C° 0.1 mm 3 mps 752 mmHg 95%
    18:00 +4°C° 0.1 mm 3 mps 753 mmHg 95%
    19:00 +4°C° 0.1 mm 3 mps 753 mmHg 96%
    20:00 +4°C° 0.1 mm 3 mps 754 mmHg 96%
    21:00 +4°C° 0.1 mm 3 mps 754 mmHg 95%
    22:00 +4°C° 0.1 mm 3 mps 755 mmHg 95%
    23:00 +4°C° 0 mm 3 mps 755 mmHg 95%
    Show more